Regional Weather Roundup
Issued by NWS Little Rock, AR

Home | Current Version | Previous Version | Graphics & Text | Print | Product List | Glossary On
Versions: 1 2 3 4 5 6 7 8 9 10 11 12 13 14 15 16 17 18 19 20 21 22 23 24 25 26 27 28 29 30 31 32 33 34 35 36 37 38 39 40 41 42 43 44 45 46 47 48 49 50
000
ASUS44 KLZK 160605
RWRLZK

WEATHER ROUNDUP FOR ARKANSAS
NATIONAL WEATHER SERVICE LITTLE ROCK AR
100 AM CDT TUE SEP 16 2014

NOTE: "FAIR" INDICATES FEW OR NO CLOUDS BELOW 12,000 FEET WITH NO
SIGNIFICANT WEATHER AND/OR OBSTRUCTIONS TO VISIBILITY.

ARZ001-003-010-029-160700-
NORTHWEST ARKANSAS

CITY           SKY/WX    TMP DP  RH WIND       PRES   REMARKS
FAYETTEVILLE   CLOUDY    66  66 100 CALM      30.18S
6HR MIN TEMP:  65; 6HR MAX TEMP:  75;

FORT SMITH     CLEAR     69  67  93 CALM      30.13S
6HR MIN TEMP:  69; 6HR MAX TEMP:  77;

HARRISON       CLOUDY    70  68  93 CALM      30.16S
6HR MIN TEMP:  68; 6HR MAX TEMP:  75;

BENTONVILLE    CLOUDY    70  66  88 CALM      30.18S
6HR MIN TEMP:  70; 6HR MAX TEMP:  77;

ROGERS         CLOUDY    69  67  93 CALM      30.18S
6HR MIN TEMP:  69; 6HR MAX TEMP:  73;

SILOAM SPGS    CLOUDY    70  64  83 CALM      30.18S
6HR MIN TEMP:  68; 6HR MAX TEMP:  75;

HIGHFILL       CLOUDY    70  68  93 SW3       30.17S
6HR MIN TEMP:  69; 6HR MAX TEMP:  76;

$$

ARZ004-005-016-160700-
NORTH CENTRAL ARKANSAS

CITY           SKY/WX    TMP DP  RH WIND       PRES   REMARKS
BATESVILLE     PTCLDY    66  64  94 CALM      30.11S
6HR MIN TEMP:  66; 6HR MAX TEMP:  75;

FLIPPIN        CLEAR     68  63  83 CALM      30.13S
6HR MIN TEMP:  68; 6HR MAX TEMP:  77;

MTN HOME       PTCLDY    68  67  96 CALM      30.13S
6HR MIN TEMP:  67; 6HR MAX TEMP:  75;

$$

ARZ040-041-160700-
WEST CENTRAL ARKANSAS

CITY           SKY/WX    TMP DP  RH WIND       PRES   REMARKS
MENA             N/A     72  70  94 CALM        N/A
MOUNT IDA      CLOUDY    70  68  93 CALM      30.12F
6HR MIN TEMP:  70; 6HR MAX TEMP:  73;

$$

ARZ009-017-025-026-028-160700-
NORTHEAST ARKANSAS

CITY           SKY/WX    TMP DP  RH WIND       PRES   REMARKS
CORNING          N/A     64  64 100 CALM      30.11S FOG
JONESBORO      PTCLDY    68  65  90 W6        30.10F
6HR MIN TEMP:  68; 6HR MAX TEMP:  76;

NEWPORT        CLEAR     65  64  96 SW3       30.11F
6HR MIN TEMP:  65; 6HR MAX TEMP:  76;

WALNUT RIDGE   PTCLDY    61  61 100 CALM      30.10S
6HR MIN TEMP:  61; 6HR MAX TEMP:  70;

BLYTHEVILLE    PTCLDY    66  64  93 CALM      30.10F
6HR MIN TEMP:  65; 6HR MAX TEMP:  73;

$$

ARZ022-023-033-042-044-160700-
CENTRAL ARKANSAS

CITY           SKY/WX    TMP DP  RH WIND       PRES   REMARKS
LITTLE ROCK    CLOUDY    71  67  87 CALM      30.12F
6HR MIN TEMP:  70; 6HR MAX TEMP:  76; 6HR PCP: TRACE;

N LITTLE ROCK    N/A     71  68  92 W3        30.12F
6HR MIN TEMP:  69; 6HR MAX TEMP:  73;

JACKSONVILLE   MOCLDY    69  67  93 W2        30.12F
6HR MIN TEMP:  68; 6HR MAX TEMP:  74;

SEARCY         MOCLDY    65  65 100 S3        30.13S
6HR MIN TEMP:  65; 6HR MAX TEMP:  75;

HOT SPRINGS    CLOUDY    71  68  90 CALM      30.13F
6HR MIN TEMP:  70; 6HR MAX TEMP:  75;

RUSSELLVILLE   MOCLDY    68  66  93 CALM      30.13F FOG
6HR MIN TEMP:  67; 6HR MAX TEMP:  73;

CLINTON        CLOUDY    64  64 100 CALM      30.15S FOG
$$

ARZ036-160700-
EAST ARKANSAS

CITY           SKY/WX    TMP DP  RH WIND       PRES   REMARKS
WEST MEMPHIS   MOCLDY    70  67  90 SW3       30.09F
6HR MIN TEMP:  68; 6HR MAX TEMP:  76;

$$

ARZ050-053-066-070-073-160700-
SOUTHWEST ARKANSAS

CITY           SKY/WX    TMP DP  RH WIND       PRES   REMARKS
ARKADELPHIA    FAIR      70  70 100 CALM      30.13F FOG
6HR MIN TEMP:  70; 6HR MAX TEMP:  75; 6HR PCP:  0.02;

CAMDEN         CLOUDY    68  66  94 CALM      30.13F FOG
TEXARKANA      CLOUDY    71  70  96 CALM      30.13F
6HR MIN TEMP:  71; 6HR MAX TEMP:  77;

EL DORADO      CLOUDY    70  69  97 CALM      30.13F
6HR MIN TEMP:  69; 6HR MAX TEMP:  77;

DE QUEEN       CLOUDY    70  69  97 CALM      30.12F FOG
6HR MIN TEMP:  70; 6HR MAX TEMP:  76;

$$

ARZ056-057-069-160700-
SOUTHEAST ARKANSAS

CITY           SKY/WX    TMP DP  RH WIND       PRES   REMARKS
PINE BLUFF     CLOUDY    70  68  93 CALM      30.13F
6HR MIN TEMP:  70; 6HR MAX TEMP:  76;

STUTTGART      CLOUDY    70  64  83 SW3       30.12F
6HR MIN TEMP:  70; 6HR MAX TEMP:  73;

MONTICELLO     CLOUDY    72  67  84 CALM      30.12F
6HR MIN TEMP:  72; 6HR MAX TEMP:  78;


$$





USA.gov is the U.S. government's official web portal to all federal, state and local government web resources and services.